Weather Roundup
Issued by NWS

Home | Current Version | Previous Version | Text Only | Print | Product List | Glossary On
Versions: 1 2 3 4 5 6 7 8 9 10 11 12 13 14 15 16 17 18 19 20 21 22 23 24 25 26 27 28 29 30 31 32 33 34 35 36 37 38 39 40 41 42 43 44 45 46 47 48 49 50
000
NZUS93 KARX 250459
HRRWXR

CURRENT HOURLY OBSERVATIONS ACROSS
MUCH OF THE UPPER MISSISSIPPI VALLEY
NATIONAL WEATHER SERVICE LA CROSSE WI
1200 AM CDT THU MAY 25 2017


...SOUTHEAST MINNESOTA...


CITY           SKY/WX    TMP DP  RH WIND       PRES   REMARKS
ROCHESTER      CLOUDY    53  49  86 E7        29.71S
ROCHESTER/MAYO NOT AVBL
WINONA         NOT AVBL
AUSTIN         NOT AVBL
ALBERT LEA     NOT AVBL
DODGE CENTER   NOT AVBL
PRESTON        NOT AVBL
OWATONNA       NOT AVBL
FARIBAULT      NOT AVBL
$$

...ELSEWHERE IN MINNESOTA...


CITY           SKY/WX    TMP DP  RH WIND       PRES   REMARKS
MINNEAPOLIS    CLOUDY    58  45  62 VRB5      29.71S
INTNL FALLS    CLEAR     47  38  71 SE3       29.74R
DULUTH         PTCLDY    44  41  89 E6        29.75S
RED WING       NOT AVBL
REDWOOD FALLS  CLEAR     51  45  79 SE5       29.69S
MANKATO          N/A     51  48  89 E5        29.71S
WORTHINGTON    CLEAR     47  43  86 SE6       29.69S
FAIRMONT       CLEAR     50  47  89 CALM      29.70F
$$

...SOUTHWEST WISCONSIN...


CITY           SKY/WX    TMP DP  RH WIND       PRES   REMARKS
LA CROSSE      PTCLDY    55  50  83 VRB3      29.70S
PRAIRIE DU CHI MOCLDY    53  48  83 CALM      29.69F
BOSCOBEL       FOG       49  47  93 CALM      29.70R VSB 1
LONE ROCK      NOT AVBL
PLATTEVILLE    CLOUDY    54  54  98 N8        29.68R
FORT MC COY    MOCLDY    47  47 100 CALM      29.72S
CAMP DOUGLAS   CLOUDY    52  50  93 CALM      29.70F
MAUSTON-NEW LI CLOUDY    53  50  89 CALM      29.69F
VIROQUA        CLOUDY    52  50  93 MISG      29.70S
WIS DELLS      CLOUDY    52  48  85 NE5       29.69S
$$

...ELSEWHERE IN WISCONSIN...


CITY           SKY/WX    TMP DP  RH WIND       PRES   REMARKS
MILWAUKEE      CLOUDY    55  51  86 N13       29.59F
MADISON        CLOUDY    53  50  89 N9        29.65F
GREEN BAY      MOCLDY    51  51 100 N7        29.68S
EAU CLAIRE     CLOUDY    53  49  86 CALM      29.71F
BLACK RVR FLS  MOCLDY    50  50 100 CALM      29.72R
MEDFORD        CLOUDY    51  47  88 NE5       29.73S
WAUSAU         CLOUDY    52  49  89 NE6       29.70S
WIS RAPIDS     CLOUDY    54  49  83 NE5       29.72S
MARSHFIELD     CLEAR     48  45  89 N3        29.70F
RICE LAKE      CLOUDY    54  48  82 CALM      29.74F
$$

...NORTHEAST IOWA...


CITY           SKY/WX    TMP DP  RH WIND       PRES   REMARKS
WATERLOO       CLEAR     47  45  93 CALM      29.69S
DUBUQUE        CLOUDY    54  51  90 N8        29.67S
DECORAH        PTCLDY    50  48  93 N3        29.69F
MASON CITY     CLEAR     49  46  90 CALM      29.71S
CHARLES CITY   CLEAR     52  50  93 CALM      29.71S
OELWEIN        CLEAR     50  48  93 N6        29.71R
$$

...ELSEWHERE IN IOWA...


CITY           SKY/WX    TMP DP  RH WIND       PRES   REMARKS
DES MOINES     CLEAR     53  48  83 CALM      29.70R
IOWA CITY      CLEAR     55  49  80 N7        29.68S
FORT DODGE     CLEAR     48  45  87 E7        29.70F
MARSHALLTOWN   CLEAR     50  48  93 CALM      29.69S
CEDAR RAPIDS   CLEAR     53  51  93 N9        29.67S
$$

...NORTHERN ILLINOIS...


CITY           SKY/WX    TMP DP  RH WIND       PRES   REMARKS
CHICAGO-OHARE  CLOUDY    54  49  83 N12       29.56S
CHICAGO-MIDWAY CLOUDY    53  50  89 N10       29.55S
MOLINE         CLOUDY    58  50  75 NW9       29.64S
ROCKFORD       PTCLDY    54  50  86 N12       29.63R
PEORIA         PTCLDY    55  53  93 NW7       29.60S
$$

NOTE: "FAIR" INDICATES FEW OR NO CLOUDS BELOW 12,000 FEET WITH NO
SIGNIFICANT WEATHER AND/OR OBSTRUCTIONS TO VISIBILITY. WIND
SPEEDS ARE IN MILES-PER-HOUR.




USA.gov is the U.S. government's official web portal to all federal, state and local government web resources and services.